| time (UTC) | temp F | wind direction | speed MPH | gust MPH | rain 1hr in | rain 24hr in | rain mn in | humidity % | barometer mb |
| 20260505124551 | 60 | 164 | 1.0 | 2.0 | 0.00 | 0.00 | 0.00 | 99 | 1006.5 |
| 20260505124052 | 60 | 273 | 1.0 | 2.0 | 0.00 | 0.00 | 0.00 | 99 | 1006.4 |
| 20260505123551 | 60 | 169 | 1.0 | 4.0 | 0.00 | 0.00 | 0.00 | 99 | 1006.2 |
| 20260505123051 | 60 | 148 | 2.0 | 4.0 | 0.00 | 0.00 | 0.00 | 99 | 1006.3 |
| 20260505122550 | 60 | 115 | 1.0 | 4.0 | 0.00 | 0.00 | 0.00 | 99 | 1006.2 |
| 20260505122049 | 59 | 138 | 3.0 | 4.0 | 0.00 | 0.00 | 0.00 | 99 | 1006.1 |
| 20260505121551 | 59 | 63 | 1.0 | 2.0 | 0.00 | 0.00 | 0.00 | 99 | 1006.3 |
| 20260505121052 | 59 | 45 | 1.0 | 5.0 | 0.00 | 0.00 | 0.00 | 99 | 1006.3 |
| 20260505120551 | 59 | 134 | 3.0 | 5.0 | 0.00 | 0.00 | 0.00 | 99 | 1006.1 |
| 20260505120051 | 59 | 132 | 3.0 | 3.0 | 0.00 | 0.00 | 0.00 | 99 | 1005.9 |
| 20260505115552 | 59 | 28 | 0.0 | 2.0 | 0.00 | 0.00 | 0.00 | 99 | 1005.4 |
| 20260505115051 | 59 | 296 | 0.0 | 2.0 | 0.00 | 0.00 | 0.00 | 99 | 1005.2 |
| 20260505114551 | 59 | 0 | 0.0 | 1.0 | 0.00 | 0.00 | 0.00 | 99 | 1005.0 |
| 20260505114049 | 59 | 0 | 0.0 | 2.0 | 0.00 | 0.00 | 0.00 | 99 | 1005.1 |
| 20260505113551 | 59 | 335 | 1.0 | 2.0 | 0.00 | 0.00 | 0.00 | 99 | 1005.1 |
| 20260505113050 | 59 | 130 | 1.0 | 2.0 | 0.00 | 0.00 | 0.00 | 99 | 1005.1 |
| 20260505112549 | 59 | 322 | 1.0 | 2.0 | 0.00 | 0.00 | 0.00 | 99 | 1005.3 |
| 20260505112051 | 59 | 348 | 1.0 | 3.0 | 0.00 | 0.00 | 0.00 | 99 | 1005.4 |
| 20260505111551 | 59 | 269 | 2.0 | 3.0 | 0.00 | 0.00 | 0.00 | 99 | 1005.1 |
| 20260505111049 | 59 | 8 | 2.0 | 4.0 | 0.00 | 0.00 | 0.00 | 99 | 1005.4 |
| 20260505110552 | 59 | 56 | 1.0 | 2.0 | 0.00 | 0.00 | 0.00 | 99 | 1005.1 |
| 20260505102049 | 60 | 297 | 2.0 | 6.0 | 0.00 | 0.00 | 0.00 | 99 | 1005.9 |
| 20260505101552 | 60 | 291 | 3.0 | 7.0 | 0.00 | 0.00 | 0.00 | 99 | 1006.0 |
| 20260505101050 | 60 | 326 | 4.0 | 7.0 | 0.00 | 0.00 | 0.00 | 99 | 1006.0 |
| 20260505100550 | 60 | 320 | 2.0 | 4.0 | 0.00 | 0.00 | 0.00 | 99 | 1005.8 |
| 20260505100051 | 60 | 214 | 2.0 | 3.0 | 0.00 | 0.00 | 0.00 | 99 | 1005.7 |
| 20260505095552 | 60 | 340 | 2.0 | 6.0 | 0.00 | 0.00 | 0.00 | 99 | 1006.2 |
| 20260505095052 | 60 | 246 | 3.0 | 4.0 | 0.00 | 0.00 | 0.00 | 99 | 1005.8 |
| 20260505094550 | 60 | 323 | 2.0 | 3.0 | 0.00 | 0.00 | 0.00 | 99 | 1006.5 |
| 20260505094049 | 60 | 300 | 2.0 | 3.0 | 0.00 | 0.00 | 0.00 | 99 | 1006.3 |
| 20260505093550 | 60 | 303 | 1.0 | 2.0 | 0.00 | 0.00 | 0.00 | 99 | 1006.4 |
| 20260505093051 | 60 | 299 | 1.0 | 2.0 | 0.00 | 0.00 | 0.00 | 99 | 1006.3 |
| 20260505092551 | 60 | 226 | 0.0 | 3.0 | 0.00 | 0.00 | 0.00 | 99 | 1006.5 |
| 20260505092051 | 60 | 170 | 2.0 | 5.0 | 0.00 | 0.00 | 0.00 | 99 | 1006.2 |
| 20260505091551 | 60 | 159 | 3.0 | 5.0 | 0.00 | 0.00 | 0.00 | 99 | 1006.2 |
| 20260505091052 | 60 | 41 | 0.0 | 4.0 | 0.00 | 0.00 | 0.00 | 99 | 1006.2 |
| 20260505090549 | 60 | 178 | 3.0 | 4.0 | 0.00 | 0.00 | 0.00 | 99 | 1006.1 |
| 20260505090051 | 60 | 60 | 0.0 | 2.0 | 0.00 | 0.00 | 0.00 | 99 | 1007.2 |
| 20260505085550 | 60 | 115 | 0.0 | 2.0 | 0.00 | 0.00 | 0.00 | 99 | 1006.5 |
| 20260505085051 | 60 | 44 | 2.0 | 3.0 | 0.00 | 0.00 | 0.00 | 99 | 1006.4 |
| 20260505084549 | 60 | 214 | 2.0 | 4.0 | 0.00 | 0.00 | 0.00 | 99 | 1005.8 |
| 20260505084050 | 60 | 336 | 1.0 | 2.0 | 0.00 | 0.00 | 0.00 | 99 | 1006.5 |
| 20260505083549 | 60 | 0 | 0.0 | 2.0 | 0.00 | 0.00 | 0.00 | 99 | 1006.6 |
| 20260505083049 | 60 | 334 | 0.0 | 2.0 | 0.00 | 0.00 | 0.00 | 99 | 1006.6 |
| 20260505082551 | 60 | 295 | 1.0 | 2.0 | 0.00 | 0.00 | 0.00 | 99 | 1006.7 |
| 20260505082053 | 60 | 0 | 0.0 | 1.0 | 0.00 | 0.00 | 0.00 | 99 | 1006.9 |
| 20260505081553 | 60 | 40 | 0.0 | 3.0 | 0.00 | 0.00 | 0.00 | 99 | 1006.6 |
| 20260505081049 | 60 | 46 | 0.0 | 4.0 | 0.00 | 0.00 | 0.00 | 99 | 1006.6 |
| 20260505080551 | 60 | 10 | 3.0 | 5.0 | 0.00 | 0.00 | 0.00 | 99 | 1007.1 |
| 20260505080049 | 60 | 354 | 4.0 | 5.0 | 0.00 | 0.00 | 0.00 | 99 | 1007.3 |
| 20260505075551 | 60 | 7 | 2.0 | 3.0 | 0.00 | 0.00 | 0.00 | 99 | 1007.1 |
| 20260505075049 | 60 | 0 | 0.0 | 0.0 | 0.00 | 0.00 | 0.00 | 99 | 1006.8 |
| 20260505074551 | 60 | 0 | 0.0 | 3.0 | 0.00 | 0.00 | 0.00 | 99 | 1007.1 |
| 20260505074053 | 60 | 329 | 1.0 | 2.0 | 0.00 | 0.00 | 0.00 | 99 | 1007.1 |
| 20260505073550 | 60 | 320 | 1.0 | 2.0 | 0.00 | 0.00 | 0.00 | 99 | 1006.9 |
| 20260505073051 | 60 | 4 | 1.0 | 4.0 | 0.00 | 0.00 | 0.00 | 99 | 1006.7 |
| 20260505072549 | 60 | 37 | 2.0 | 4.0 | 0.00 | 0.00 | 0.00 | 100 | 1007.0 |
| 20260505072051 | 60 | 334 | 2.0 | 3.0 | 0.00 | 0.00 | 0.00 | 100 | 1006.7 |
| 20260505071551 | 60 | 339 | 1.0 | 3.0 | 0.00 | 0.00 | 0.00 | 100 | 1006.7 |
| 20260505071051 | 61 | 31 | 0.0 | 3.0 | 0.00 | 0.00 | 0.00 | 99 | 1006.7 |
| 20260505070551 | 62 | 35 | 1.0 | 2.0 | 0.00 | 0.00 | 0.00 | 96 | 1006.8 |
| 20260505070050 | 62 | 0 | 0.0 | 0.0 | 0.00 | 0.00 | 0.00 | 94 | 1006.2 |
| 20260505065550 | 63 | 0 | 0.0 | 3.0 | 0.00 | 0.00 | 0.00 | 91 | 1006.1 |
| 20260505065052 | 63 | 21 | 1.0 | 3.0 | 0.00 | 0.00 | 0.00 | 87 | 1006.2 |
| 20260505064552 | 64 | 320 | 2.0 | 4.0 | 0.00 | 0.00 | 0.00 | 84 | 1006.2 |
| 20260505064049 | 64 | 347 | 1.0 | 3.0 | 0.00 | 0.00 | 0.00 | 82 | 1006.3 |
| 20260505063551 | 64 | 330 | 2.0 | 4.0 | 0.00 | 0.00 | 0.00 | 81 | 1006.3 |
| 20260505063052 | 65 | 348 | 2.0 | 3.0 | 0.00 | 0.00 | 0.00 | 79 | 1006.4 |
| 20260505062551 | 65 | 359 | 2.0 | 5.0 | 0.00 | 0.00 | 0.00 | 79 | 1006.5 |
| 20260505062050 | 65 | 327 | 2.0 | 5.0 | 0.00 | 0.00 | 0.00 | 78 | 1006.4 |
| 20260505061552 | 65 | 315 | 2.0 | 4.0 | 0.00 | 0.00 | 0.00 | 77 | 1006.5 |
| 20260505061049 | 65 | 338 | 1.0 | 4.0 | 0.00 | 0.00 | 0.00 | 77 | 1006.6 |
| 20260505060551 | 66 | 322 | 1.0 | 4.0 | 0.00 | 0.00 | 0.00 | 76 | 1006.6 |
| 20260505060051 | 66 | 338 | 1.0 | 4.0 | 0.00 | 0.00 | 0.00 | 75 | 1006.8 |
| 20260505055550 | 66 | 330 | 2.0 | 4.0 | 0.00 | 0.00 | 0.00 | 75 | 1006.7 |
| 20260505055049 | 66 | 331 | 1.0 | 4.0 | 0.00 | 0.00 | 0.00 | 75 | 1006.7 |
| 20260505054550 | 66 | 304 | 2.0 | 4.0 | 0.00 | 0.00 | 0.00 | 74 | 1006.7 |
| 20260505054050 | 66 | 310 | 2.0 | 4.0 | 0.00 | 0.00 | 0.00 | 74 | 1006.7 |
| 20260505053549 | 66 | 277 | 0.0 | 4.0 | 0.00 | 0.00 | 0.00 | 75 | 1006.7 |
| 20260505053049 | 66 | 277 | 2.0 | 8.0 | 0.00 | 0.00 | 0.00 | 74 | 1006.5 |
| 20260505052549 | 66 | 252 | 2.0 | 5.0 | 0.00 | 0.00 | 0.00 | 74 | 1006.3 |
| 20260505052049 | 66 | 231 | 1.0 | 3.0 | 0.00 | 0.00 | 0.00 | 75 | 1006.1 |
| 20260505051550 | 66 | 231 | 1.0 | 6.0 | 0.00 | 0.00 | 0.00 | 74 | 1006.2 |
| 20260505051050 | 66 | 302 | 1.0 | 5.0 | 0.00 | 0.00 | 0.00 | 75 | 1006.3 |
| 20260505050549 | 66 | 336 | 1.0 | 6.0 | 0.00 | 0.00 | 0.00 | 74 | 1006.5 |
| 20260505041550 | 67 | 314 | 2.0 | 7.0 | 0.00 | 0.00 | 0.00 | 72 | 1006.9 |
| 20260505041049 | 67 | 265 | 2.0 | 7.0 | 0.00 | 0.00 | 0.00 | 72 | 1007.1 |
| 20260505040551 | 67 | 303 | 1.0 | 3.0 | 0.00 | 0.00 | 0.00 | 72 | 1007.1 |
| 20260505040052 | 67 | 0 | 1.0 | 6.0 | 0.00 | 0.00 | 0.00 | 71 | 1007.2 |
| 20260505035551 | 67 | 297 | 1.0 | 4.0 | 0.00 | 0.00 | 0.00 | 71 | 1007.2 |
| 20260505035049 | 67 | 327 | 1.0 | 6.0 | 0.00 | 0.00 | 0.00 | 71 | 1007.2 |
| 20260505034549 | 67 | 248 | 3.0 | 5.0 | 0.00 | 0.00 | 0.00 | 71 | 1007.2 |
| 20260505034049 | 67 | 350 | 1.0 | 7.0 | 0.00 | 0.00 | 0.00 | 70 | 1007.3 |
| 20260505033550 | 68 | 340 | 2.0 | 6.0 | 0.00 | 0.00 | 0.00 | 70 | 1007.3 |
| 20260505033049 | 68 | 255 | 3.0 | 6.0 | 0.00 | 0.00 | 0.00 | 69 | 1007.3 |
| 20260505032549 | 68 | 233 | 2.0 | 5.0 | 0.00 | 0.00 | 0.00 | 69 | 1007.4 |
| 20260505032050 | 67 | 284 | 2.0 | 4.0 | 0.00 | 0.00 | 0.00 | 70 | 1007.5 |
| 20260505031549 | 67 | 253 | 2.0 | 4.0 | 0.00 | 0.00 | 0.00 | 70 | 1007.5 |
| 20260505031049 | 67 | 259 | 1.0 | 4.0 | 0.00 | 0.00 | 0.00 | 70 | 1007.5 |
| 20260505030551 | 67 | 317 | 0.0 | 3.0 | 0.00 | 0.00 | 0.00 | 71 | 1007.4 |
| 20260505030050 | 67 | 4 | 0.0 | 2.0 | 0.00 | 0.00 | 0.00 | 71 | 1007.4 |
| 20260505025549 | 67 | 225 | 0.0 | 3.0 | 0.00 | 0.00 | 0.00 | 71 | 1007.4 |
| 20260505025049 | 66 | 55 | 0.0 | 3.0 | 0.00 | 0.00 | 0.00 | 71 | 1007.4 |
| 20260505024550 | 66 | 231 | 0.0 | 2.0 | 0.00 | 0.00 | 0.00 | 73 | 1007.4 |
| 20260505024049 | 66 | 255 | 1.0 | 2.0 | 0.00 | 0.00 | 0.00 | 73 | 1007.3 |
| 20260505023550 | 66 | 270 | 0.0 | 2.0 | 0.00 | 0.00 | 0.00 | 73 | 1007.4 |
| 20260505023049 | 67 | 0 | 0.0 | 1.0 | 0.00 | 0.00 | 0.00 | 73 | 1007.4 |
| 20260505022549 | 67 | 0 | 0.0 | 2.0 | 0.00 | 0.00 | 0.00 | 72 | 1007.3 |
| 20260505022049 | 67 | 237 | 1.0 | 2.0 | 0.00 | 0.00 | 0.00 | 72 | 1007.1 |
| 20260505021551 | 68 | 274 | 0.0 | 2.0 | 0.00 | 0.00 | 0.00 | 71 | 1007.0 |
| 20260505021049 | 68 | 118 | 0.0 | 2.0 | 0.00 | 0.00 | 0.00 | 70 | 1006.9 |
| 20260505020549 | 68 | 340 | 0.0 | 2.0 | 0.00 | 0.00 | 0.00 | 69 | 1006.8 |
| 20260505020051 | 68 | 335 | 0.0 | 3.0 | 0.00 | 0.00 | 0.00 | 68 | 1006.7 |
| 20260505015549 | 69 | 339 | 2.0 | 3.0 | 0.00 | 0.00 | 0.00 | 67 | 1006.7 |
| 20260505015050 | 69 | 346 | 1.0 | 2.0 | 0.00 | 0.00 | 0.00 | 68 | 1006.6 |
| 20260505014550 | 69 | 0 | 0.0 | 1.0 | 0.00 | 0.00 | 0.00 | 66 | 1006.5 |
| 20260505014050 | 70 | 0 | 0.0 | 2.0 | 0.00 | 0.00 | 0.00 | 65 | 1006.5 |
| 20260505013549 | 70 | 347 | 1.0 | 3.0 | 0.00 | 0.00 | 0.00 | 64 | 1006.4 |
| 20260505013051 | 71 | 354 | 1.0 | 7.0 | 0.00 | 0.00 | 0.00 | 63 | 1006.4 |
| 20260505012549 | 71 | 0 | 2.0 | 7.0 | 0.00 | 0.00 | 0.00 | 63 | 1006.3 |
| 20260505012049 | 71 | 326 | 4.0 | 7.0 | 0.00 | 0.00 | 0.00 | 62 | 1006.2 |
| 20260505011552 | 71 | 323 | 2.0 | 7.0 | 0.00 | 0.00 | 0.00 | 61 | 1006.2 |
| 20260505011049 | 72 | 318 | 3.0 | 8.0 | 0.00 | 0.00 | 0.00 | 61 | 1006.2 |
| 20260505010551 | 72 | 315 | 5.0 | 11.0 | 0.00 | 0.00 | 0.00 | 60 | 1006.1 |
| 20260505010050 | 72 | 315 | 5.0 | 14.0 | 0.00 | 0.00 | 0.00 | 60 | 1006.0 |
| 20260505005549 | 72 | 313 | 6.0 | 10.0 | 0.00 | 0.00 | 0.00 | 60 | 1006.0 |
| 20260505005049 | 72 | 330 | 6.0 | 9.0 | 0.00 | 0.00 | 0.00 | 60 | 1006.0 |
| 20260505004549 | 73 | 329 | 4.0 | 9.0 | 0.00 | 0.00 | 0.00 | 60 | 1005.9 |
| 20260505004049 | 73 | 324 | 4.0 | 8.0 | 0.00 | 0.00 | 0.00 | 61 | 1005.9 |
| 20260505003550 | 73 | 320 | 5.0 | 9.0 | 0.00 | 0.00 | 0.00 | 60 | 1005.8 |
| 20260505003049 | 73 | 334 | 4.0 | 6.0 | 0.00 | 0.00 | 0.00 | 60 | 1005.7 |
| 20260505002549 | 74 | 323 | 3.0 | 6.0 | 0.00 | 0.00 | 0.00 | 60 | 1005.7 |
| 20260505002049 | 74 | 322 | 3.0 | 7.0 | 0.00 | 0.00 | 0.00 | 59 | 1005.6 |
| 20260505001550 | 74 | 309 | 3.0 | 5.0 | 0.00 | 0.00 | 0.00 | 59 | 1005.6 |
| 20260505001049 | 74 | 325 | 4.0 | 9.0 | 0.00 | 0.00 | 0.00 | 58 | 1005.6 |
| 20260505000549 | 75 | 318 | 5.0 | 9.0 | 0.00 | 0.00 | 0.00 | 58 | 1005.6 |
| 20260505000052 | 75 | 295 | 2.0 | 7.0 | 0.00 | 0.00 | 0.00 | 58 | 1005.6 |
| 20260504235549 | 75 | 341 | 2.0 | 8.0 | 0.00 | 0.00 | 0.00 | 58 | 1005.7 |
| 20260504235049 | 76 | 319 | 4.0 | 8.0 | 0.00 | 0.00 | 0.00 | 56 | 1005.6 |
| 20260504234549 | 76 | 240 | 2.0 | 9.0 | 0.00 | 0.00 | 0.00 | 57 | 1005.6 |
| 20260504234050 | 76 | 327 | 5.0 | 9.0 | 0.00 | 0.00 | 0.00 | 56 | 1005.4 |
| 20260504233551 | 76 | 330 | 2.0 | 8.0 | 0.00 | 0.00 | 0.00 | 55 | 1005.6 |
| 20260504233049 | 77 | 286 | 2.0 | 9.0 | 0.00 | 0.00 | 0.00 | 54 | 1005.6 |
| 20260504232549 | 77 | 315 | 4.0 | 8.0 | 0.00 | 0.00 | 0.00 | 54 | 1005.6 |
| 20260504232050 | 77 | 335 | 6.0 | 9.0 | 0.00 | 0.00 | 0.00 | 52 | 1005.6 |
| 20260504231552 | 77 | 263 | 2.0 | 6.0 | 0.00 | 0.00 | 0.00 | 53 | 1005.6 |
| 20260504231051 | 77 | 350 | 2.0 | 8.0 | 0.00 | 0.00 | 0.00 | 53 | 1005.6 |
| 20260504230549 | 77 | 343 | 5.0 | 8.0 | 0.00 | 0.00 | 0.00 | 52 | 1005.6 |
| 20260504230050 | 77 | 328 | 4.0 | 10.0 | 0.00 | 0.00 | 0.00 | 53 | 1005.7 |
| 20260504225550 | 77 | 352 | 5.0 | 9.0 | 0.00 | 0.00 | 0.00 | 53 | 1005.7 |
| 20260504225051 | 77 | 339 | 5.0 | 11.0 | 0.00 | 0.00 | 0.00 | 52 | 1005.7 |
| 20260504224549 | 78 | 330 | 4.0 | 9.0 | 0.00 | 0.00 | 0.00 | 51 | 1005.7 |
| 20260504224049 | 78 | 319 | 5.0 | 10.0 | 0.00 | 0.00 | 0.00 | 51 | 1005.7 |
| 20260504223550 | 78 | 320 | 4.0 | 9.0 | 0.00 | 0.00 | 0.00 | 51 | 1005.6 |
| 20260504223050 | 78 | 345 | 6.0 | 9.0 | 0.00 | 0.00 | 0.00 | 50 | 1005.9 |
| 20260504222551 | 78 | 343 | 3.0 | 10.0 | 0.00 | 0.00 | 0.00 | 50 | 1006.0 |
| 20260504222049 | 78 | 331 | 5.0 | 10.0 | 0.00 | 0.00 | 0.00 | 49 | 1005.9 |
| 20260504221551 | 79 | 327 | 6.0 | 12.0 | 0.00 | 0.00 | 0.00 | 49 | 1006.0 |
| 20260504221051 | 79 | 358 | 4.0 | 10.0 | 0.00 | 0.00 | 0.00 | 49 | 1006.1 |
| 20260504220549 | 79 | 324 | 6.0 | 11.0 | 0.00 | 0.00 | 0.00 | 48 | 1006.1 |
| 20260504220052 | 80 | 338 | 6.0 | 15.0 | 0.00 | 0.00 | 0.00 | 48 | 1006.1 |
| 20260504215551 | 80 | 325 | 5.0 | 10.0 | 0.00 | 0.00 | 0.00 | 47 | 1006.1 |
| 20260504215049 | 80 | 340 | 5.0 | 11.0 | 0.00 | 0.00 | 0.00 | 47 | 1006.1 |
| 20260504214550 | 80 | 331 | 5.0 | 10.0 | 0.00 | 0.00 | 0.00 | 47 | 1006.1 |
| 20260504214049 | 80 | 352 | 4.0 | 11.0 | 0.00 | 0.00 | 0.00 | 46 | 1006.0 |
| 20260504213549 | 80 | 344 | 4.0 | 12.0 | 0.00 | 0.00 | 0.00 | 47 | 1006.2 |
| 20260504213051 | 80 | 343 | 6.0 | 13.0 | 0.00 | 0.00 | 0.00 | 46 | 1006.2 |
| 20260504212550 | 80 | 320 | 7.0 | 12.0 | 0.00 | 0.00 | 0.00 | 47 | 1006.1 |
| 20260504212052 | 80 | 327 | 6.0 | 14.0 | 0.00 | 0.00 | 0.00 | 46 | 1006.1 |
| 20260504211552 | 80 | 339 | 6.0 | 11.0 | 0.00 | 0.00 | 0.00 | 46 | 1006.1 |
| 20260504211049 | 80 | 341 | 6.0 | 11.0 | 0.00 | 0.00 | 0.00 | 46 | 1006.2 |
| 20260504210552 | 80 | 324 | 7.0 | 13.0 | 0.00 | 0.00 | 0.00 | 46 | 1006.3 |
| 20260504210051 | 80 | 334 | 4.0 | 11.0 | 0.00 | 0.00 | 0.00 | 46 | 1006.3 |
| 20260504205550 | 80 | 318 | 6.0 | 12.0 | 0.00 | 0.00 | 0.00 | 47 | 1006.4 |
| 20260504205051 | 80 | 333 | 3.0 | 11.0 | 0.00 | 0.00 | 0.00 | 48 | 1006.4 |
| 20260504204552 | 81 | 333 | 4.0 | 11.0 | 0.00 | 0.00 | 0.00 | 47 | 1006.5 |
| 20260504204049 | 81 | 340 | 6.0 | 11.0 | 0.00 | 0.00 | 0.00 | 46 | 1006.5 |
| 20260504203551 | 81 | 316 | 7.0 | 11.0 | 0.00 | 0.00 | 0.00 | 47 | 1006.5 |
| 20260504203051 | 80 | 355 | 5.0 | 11.0 | 0.00 | 0.00 | 0.00 | 48 | 1006.6 |
| 20260504202550 | 80 | 331 | 4.0 | 10.0 | 0.00 | 0.00 | 0.00 | 47 | 1006.7 |
| 20260504202049 | 80 | 346 | 6.0 | 13.0 | 0.00 | 0.00 | 0.00 | 47 | 1006.8 |
| 20260504201550 | 80 | 331 | 7.0 | 12.0 | 0.00 | 0.00 | 0.00 | 47 | 1006.7 |
| 20260504201051 | 80 | 327 | 5.0 | 13.0 | 0.00 | 0.00 | 0.00 | 47 | 1006.9 |
| 20260504200551 | 80 | 327 | 5.0 | 11.0 | 0.00 | 0.00 | 0.00 | 48 | 1006.9 |
| 20260504200050 | 80 | 320 | 4.0 | 10.0 | 0.00 | 0.00 | 0.00 | 48 | 1006.9 |
| 20260504195549 | 80 | 314 | 8.0 | 12.0 | 0.00 | 0.00 | 0.00 | 47 | 1006.9 |
| 20260504195050 | 80 | 341 | 8.0 | 13.0 | 0.00 | 0.00 | 0.00 | 46 | 1006.9 |
| 20260504194549 | 80 | 308 | 6.0 | 11.0 | 0.00 | 0.00 | 0.00 | 47 | 1007.1 |
| 20260504194049 | 80 | 334 | 7.0 | 12.0 | 0.00 | 0.00 | 0.00 | 48 | 1007.1 |
| 20260504193549 | 80 | 334 | 3.0 | 12.0 | 0.00 | 0.00 | 0.00 | 50 | 1007.2 |
| 20260504193049 | 80 | 9 | 7.0 | 15.0 | 0.00 | 0.00 | 0.00 | 48 | 1007.2 |
| 20260504192551 | 80 | 334 | 6.0 | 11.0 | 0.00 | 0.00 | 0.00 | 49 | 1007.3 |
| 20260504192051 | 80 | 340 | 5.0 | 11.0 | 0.00 | 0.00 | 0.00 | 49 | 1007.3 |
| 20260504191550 | 80 | 324 | 5.0 | 13.0 | 0.00 | 0.00 | 0.00 | 49 | 1007.3 |
| 20260504191049 | 80 | 335 | 9.0 | 12.0 | 0.00 | 0.00 | 0.00 | 48 | 1007.4 |
| 20260504190549 | 79 | 350 | 4.0 | 14.0 | 0.00 | 0.00 | 0.00 | 50 | 1007.4 |
| 20260504190049 | 79 | 305 | 6.0 | 10.0 | 0.00 | 0.00 | 0.00 | 49 | 1007.4 |
| 20260504185551 | 79 | 333 | 6.0 | 11.0 | 0.00 | 0.00 | 0.00 | 50 | 1007.5 |
| 20260504185050 | 79 | 326 | 7.0 | 11.0 | 0.00 | 0.00 | 0.00 | 49 | 1007.3 |
| 20260504184551 | 79 | 341 | 4.0 | 14.0 | 0.00 | 0.00 | 0.00 | 50 | 1007.5 |
| 20260504184051 | 79 | 342 | 8.0 | 15.0 | 0.00 | 0.00 | 0.00 | 48 | 1007.6 |
| 20260504183550 | 79 | 315 | 5.0 | 15.0 | 0.00 | 0.00 | 0.00 | 50 | 1007.5 |
| 20260504183050 | 79 | 321 | 7.0 | 11.0 | 0.00 | 0.00 | 0.00 | 49 | 1007.7 |
| 20260504182551 | 79 | 327 | 7.0 | 12.0 | 0.00 | 0.00 | 0.00 | 49 | 1007.8 |
| 20260504182051 | 79 | 339 | 6.0 | 13.0 | 0.00 | 0.00 | 0.00 | 49 | 1007.8 |
| 20260504181551 | 79 | 334 | 7.0 | 11.0 | 0.00 | 0.00 | 0.00 | 49 | 1007.8 |
| 20260504181052 | 79 | 342 | 6.0 | 9.0 | 0.00 | 0.00 | 0.00 | 50 | 1007.9 |
| 20260504180552 | 78 | 339 | 5.0 | 13.0 | 0.00 | 0.00 | 0.00 | 51 | 1007.9 |
| 20260504180051 | 78 | 333 | 7.0 | 14.0 | 0.00 | 0.00 | 0.00 | 50 | 1007.9 |
| 20260504175549 | 79 | 330 | 7.0 | 14.0 | 0.00 | 0.00 | 0.00 | 49 | 1008.1 |
| 20260504175052 | 79 | 341 | 6.0 | 13.0 | 0.00 | 0.00 | 0.00 | 50 | 1008.1 |
| 20260504174551 | 78 | 355 | 2.0 | 13.0 | 0.00 | 0.00 | 0.00 | 49 | 1008.1 |
| 20260504174052 | 78 | 348 | 6.0 | 13.0 | 0.00 | 0.00 | 0.00 | 48 | 1008.1 |
| 20260504173551 | 78 | 320 | 8.0 | 11.0 | 0.00 | 0.00 | 0.00 | 49 | 1008.1 |
| 20260504173049 | 78 | 335 | 6.0 | 13.0 | 0.00 | 0.00 | 0.00 | 49 | 1008.2 |
| 20260504172551 | 78 | 3 | 5.0 | 12.0 | 0.00 | 0.00 | 0.00 | 49 | 1008.2 |
| 20260504172051 | 77 | 355 | 7.0 | 13.0 | 0.00 | 0.00 | 0.00 | 49 | 1008.2 |
| 20260504171551 | 77 | 354 | 9.0 | 13.0 | 0.00 | 0.00 | 0.00 | 49 | 1008.2 |
| 20260504171051 | 77 | 329 | 9.0 | 12.0 | 0.00 | 0.00 | 0.00 | 49 | 1008.2 |
| 20260504170549 | 77 | 336 | 7.0 | 13.0 | 0.00 | 0.00 | 0.00 | 49 | 1008.3 |
| 20260504151052 | 73 | 343 | 5.0 | 12.0 | 0.00 | 0.00 | 0.00 | 52 | 1009.5 |
| 20260504150554 | 73 | 358 | 6.0 | 12.0 | 0.00 | 0.00 | 0.00 | 52 | 1009.5 |
| 20260504141049 | 69 | 354 | 6.0 | 12.0 | 0.00 | 0.00 | 0.00 | 55 | 1010.1 |
| 20260504140552 | 69 | 317 | 6.0 | 11.0 | 0.00 | 0.00 | 0.00 | 56 | 1010.1 |
| 20260504130550 | 65 | 357 | 6.0 | 14.0 | 0.00 | 0.00 | 0.00 | 62 | 1010.5 |